Philadelphia, PA

4:24 AM EST on November 21, 2019 (GMT -0500)
Philadelphia International

Weather History for KPHL - September, 2019

Change the Weather History Date:

Saturday, September 14, 2019

  Actual Average Record
Temperature  
Mean Temperature 70 °F 70 °F  
Max Temperature 79 °F 79 °F 92 °F (1995)
Min Temperature 61 °F 61 °F 44 °F (1975)
Degree Days  
Heating Degree Days 0 1  
Month to date heating degree days 0 3  
Since 1 July heating degree days 0 4  
Cooling Degree Days 5 6  
Month to date cooling degree days 123 105  
Year to date cooling degree days 1457 1222  
Growing Degree Days 20 (Base 50)    
Moisture  
Dew Point 60 °F    
Average Humidity 71    
Maximum Humidity 84    
Minimum Humidity 58    
Precipitation  
Precipitation 0.08 in 0.13 in 4.69 in (1966)
Month to date precipitation 0.69 1.67  
Year to date precipitation 36.72 29.69  
Snow  
Snow 0.00 in 0.00 in 0.00 in ()
Month to date snowfall 0.0 0.0  
Since 1 July snowfall 0.0 0.0  
Since 1 September snowfall 0.0 0.0  
Snow Depth 0.00 in    
Sea Level Pressure  
Sea Level Pressure 30.26 in    
Wind  
Wind Speed 8 mph (SSE)    
Max Wind Speed 15 mph    
Max Gust Speed 21 mph    
Visibility 10 miles    
Events      
T = Trace of Precipitation, MM = Missing Value Source: NWS Daily Summary

Daily Weather History Graph

Daily Weather History Graph

Search for Another Location

Airport or City:

Astronomy

Sep. 14, 2019 Rise Set
Actual Time 6:40 AM EDT 7:11 PM EDT
Civil Twilight 6:13 AM EDT 7:38 PM EDT
Nautical Twilight 5:41 AM EDT 8:10 PM EDT
Astronomical Twilight 5:08 AM EDT 8:43 PM EDT
Moon 7:51 PM EDT (9/14) 6:52 AM EDT (9/14)
Length of Visible Light 13h 25m
Length of Day
12h 30m
Full, 100% of the Moon is Illuminated
Sep 14
Full
Sep 21
Last Quarter
Sep 28
New
Oct 5
First Quarter
Oct 13
Full

Hourly Weather History & Observations

Time (EDT) Temp. Dew Point Humidity Pressure Visibility Wind Dir Wind Speed Gust Speed Precip Events Conditions
12:54 AM 63.0 °F 52.0 °F 67% 30.38 in 10.0 mi East 8.1 mph - N/A   Scattered Clouds
1:54 AM 63.0 °F 54.0 °F 72% 30.36 in 10.0 mi East 8.1 mph - N/A   Scattered Clouds
2:54 AM 63.0 °F 54.0 °F 72% 30.33 in 10.0 mi East 6.9 mph - N/A   Mostly Cloudy
3:54 AM 62.1 °F 54.0 °F 75% 30.33 in 10.0 mi East 6.9 mph - N/A   Mostly Cloudy
4:54 AM 61.0 °F 54.0 °F 78% 30.33 in 10.0 mi East 4.6 mph - N/A   Scattered Clouds
5:54 AM 61.0 °F 55.0 °F 81% 30.32 in 10.0 mi East 5.8 mph - N/A   Scattered Clouds
6:54 AM 61.0 °F 55.0 °F 81% 30.32 in 10.0 mi ESE 6.9 mph - N/A   Partly Cloudy
7:54 AM 64.9 °F 55.9 °F 73% 30.32 in 10.0 mi SSE 6.9 mph - N/A   Scattered Clouds
8:54 AM 68.0 °F 57.9 °F 70% 30.32 in 10.0 mi SSE 6.9 mph - N/A   Overcast
9:54 AM 73.0 °F 61.0 °F 66% 30.32 in 10.0 mi South 8.1 mph - N/A   Mostly Cloudy
10:54 AM 73.9 °F 60.1 °F 62% 30.31 in 10.0 mi SSW 11.5 mph - N/A   Overcast
11:54 AM 73.0 °F 62.1 °F 68% 30.28 in 10.0 mi South 9.2 mph - N/A   Overcast
12:54 PM 75.0 °F 62.1 °F 64% 30.27 in 10.0 mi SSW 11.5 mph - N/A   Overcast
1:54 PM 75.9 °F 62.1 °F 62% 30.24 in 10.0 mi South 10.4 mph - N/A   Overcast
2:54 PM 77.0 °F 63.0 °F 62% 30.21 in 10.0 mi South 10.4 mph - N/A   Overcast
3:54 PM 78.1 °F 62.1 °F 58% 30.19 in 10.0 mi South 11.5 mph - N/A   Overcast
4:54 PM 78.1 °F 63.0 °F 60% 30.18 in 10.0 mi SSW 11.5 mph 18.4 mph N/A   Mostly Cloudy
5:54 PM 78.1 °F 64.0 °F 62% 30.17 in 10.0 mi SSW 6.9 mph - N/A   Mostly Cloudy
6:54 PM 77.0 °F 64.9 °F 66% 30.17 in 10.0 mi South 6.9 mph - N/A   Mostly Cloudy
7:54 PM 75.9 °F 66.0 °F 71% 30.17 in 10.0 mi South 9.2 mph - N/A   Mostly Cloudy
8:54 PM 75.0 °F 66.9 °F 76% 30.19 in 10.0 mi South 5.8 mph - N/A   Overcast
9:54 PM 73.9 °F 66.9 °F 79% 30.18 in 10.0 mi SSW 4.6 mph - N/A   Overcast
10:54 PM 73.0 °F 66.9 °F 81% 30.18 in 10.0 mi South 5.8 mph - N/A   Overcast
11:54 PM 73.0 °F 68.0 °F 84% 30.17 in 10.0 mi South 4.6 mph - N/A   Overcast